Christchurch, New Zealand

9:49 AM NZDT on December 10, 2016 (GMT +1300)
Christchurch

Weather History for 93780 - July, 2013

Change the Weather History Date:

Sunday, July 7, 2013

  Actual Average Record
Temperature  
Mean Temperature 50 °F -  
Max Temperature 55 °F 49 °F - ()
Min Temperature 42 °F 32 °F - ()
Degree Days  
Heating Degree Days 16    
Moisture  
Dew Point 36 °F    
Average Humidity 58    
Maximum Humidity 82    
Minimum Humidity 44    
Precipitation  
Precipitation 0.00 in - - ()
Sea Level Pressure  
Sea Level Pressure 29.57 in    
Wind  
Wind Speed 11 mph ()    
Max Wind Speed 23 mph    
Max Gust Speed 30 mph    
Visibility 6.2 miles    
Events Rain    
T = Trace of Precipitation, MM = Missing Value Source: Averaged Metar Reports

Daily Weather History Graph

Daily Weather History Graph

Search for Another Location

Airport or City:

Trip Planner

Search our weather history database for the weather conditions in past years. The results will help you decide how hot, cold, wet, or windy it might be!

Date:

Astronomy

Jul. 07, 2013 Rise Set
Actual Time 8:02 AM NZST 5:07 PM NZST
Civil Twilight 7:29 AM NZST 5:39 PM NZST
Nautical Twilight 6:54 AM NZST 6:15 PM NZST
Astronomical Twilight 6:19 AM NZST 6:50 PM NZST
Moon 6:43 AM NZST (7/7) 4:21 PM NZST (7/7)
Length of Visible Light 10h 09m
Length of Day
9h 04m
Waning Crescent, 2% of the Moon is Illuminated
Jul 7
Waning Crescent
Jul 8
New
Jul 16
First Quarter
Jul 23
Full
Jul 30
Last Quarter

Hourly Weather History & Observations

Time (NZST) Temp. Windchill Dew Point Humidity Pressure Visibility Wind Dir Wind Speed Gust Speed Precip Events Conditions
12:00 AM 51.8 °F - 35.6 °F 54% 29.56 in - WNW 11.5 mph - N/A   Clear
1:00 AM 50.0 °F - 35.6 °F 58% 29.56 in - North 4.6 mph - N/A   Clear
2:00 AM 53.6 °F - 37.4 °F 54% 29.53 in - NW 18.4 mph 29.9 mph N/A   Clear
3:00 AM 53.6 °F - 41.0 °F 62% 29.53 in - NNW 23.0 mph - N/A   Clear
4:00 AM 53.6 °F - 41.0 °F 62% 29.53 in 6.2 mi North 18.4 mph 29.9 mph N/A Rain Light Rain
5:00 AM 50.0 °F - 44.6 °F 82% 29.50 in 6.2 mi North 16.1 mph - N/A Rain Light Rain
6:00 AM 50.0 °F - 42.8 °F 76% 29.50 in 6.2 mi North 12.7 mph - N/A Rain Light Rain Showers
7:00 AM 50.0 °F - 41.0 °F 71% 29.50 in 6.2 mi North 10.4 mph - N/A Rain Light Rain Showers
8:00 AM 51.8 °F - 41.0 °F 67% 29.50 in 6.2 mi NW 13.8 mph - N/A   Scattered Clouds
9:00 AM 50.0 °F - 42.8 °F 76% 29.53 in 6.2 mi NW 10.4 mph - N/A Rain Light Rain Showers
10:00 AM 53.6 °F - 39.2 °F 58% 29.53 in 6.2 mi NW 15.0 mph - N/A   Unknown
11:00 AM 55.4 °F - 35.6 °F 47% 29.56 in 6.2 mi WNW 18.4 mph - N/A   Unknown
12:00 PM 55.4 °F - 33.8 °F 44% 29.59 in - West 16.1 mph - N/A   Clear
1:00 PM 55.4 °F - 33.8 °F 44% 29.56 in - WNW 18.4 mph - N/A   Clear
2:00 PM 53.6 °F - 33.8 °F 47% 29.56 in - WNW 20.7 mph - N/A   Clear
3:00 PM 55.4 °F - 33.8 °F 44% 29.56 in - West 11.5 mph - N/A   Clear
4:00 PM 53.6 °F - 32.0 °F 44% 29.59 in - WNW 12.7 mph - N/A   Clear
5:00 PM 50.0 °F - 33.8 °F 54% 29.59 in - WNW 10.4 mph - N/A   Clear
6:00 PM 48.2 °F - 32.0 °F 54% 29.62 in - WNW 4.6 mph - N/A   Clear
7:00 PM 44.6 °F - 30.2 °F 57% 29.62 in - West 2.3 mph - N/A   Clear
8:00 PM 48.2 °F - 32.0 °F 54% 29.65 in - WNW 11.5 mph - N/A   Clear
9:00 PM 44.6 °F 43.1 °F 30.2 °F 57% 29.68 in - SSW 3.5 mph - N/A   Clear
10:00 PM 46.4 °F 40.7 °F 32.0 °F 57% 29.68 in - WNW 12.7 mph - N/A   Clear
11:00 PM 42.8 °F 41.1 °F 30.2 °F 61% 29.71 in - WSW 3.5 mph - N/A   Clear